TimeCST,TemperatureF,Dew PointF,Humidity,Sea Level PressureIn,VisibilityMPH,Wind Direction,Wind SpeedMPH,Gust SpeedMPH,PrecipitationIn,Events,Conditions,WindDirDegrees,DateUTC
12:51 AM,71.1,71.1,100,29.93,10.0,South,13.8,-,N/A,,Clear,170,2012-12-10 06:51:00
1:51 AM,71.1,71.1,100,29.92,10.0,South,10.4,-,N/A,,Clear,170,2012-12-10 07:51:00
2:51 AM,71.1,71.1,100,29.90,10.0,South,10.4,-,N/A,,Clear,180,2012-12-10 08:51:00
3:51 AM,71.1,71.1,100,29.87,9.0,SSE,11.5,-,N/A,,Clear,160,2012-12-10 09:51:00
4:51 AM,71.1,71.1,100,29.85,9.0,South,13.8,-,N/A,,Clear,170,2012-12-10 10:51:00
5:51 AM,71.1,71.1,100,29.83,9.0,South,15.0,-,N/A,,Clear,170,2012-12-10 11:51:00
6:51 AM,71.1,71.1,100,29.84,7.0,SSW,11.5,-,N/A,,Clear,200,2012-12-10 12:51:00
7:51 AM,72.0,72.0,100,29.87,6.0,SW,8.1,-,N/A,,Mostly Cloudy,220,2012-12-10 13:51:00
8:51 AM,73.9,71.1,91,29.88,8.0,SW,10.4,-,N/A,,Clear,220,2012-12-10 14:51:00
9:51 AM,75.9,71.1,85,29.88,9.0,SSW,12.7,-,N/A,,Clear,210,2012-12-10 15:51:00
10:51 AM,77.0,71.1,82,29.85,10.0,SSW,19.6,25.3,N/A,,Clear,210,2012-12-10 16:51:00
11:51 AM,77.0,71.1,82,29.84,10.0,SSW,15.0,24.2,N/A,,Clear,210,2012-12-10 17:51:00
12:51 PM,77.0,70.0,79,29.82,10.0,SSW,17.3,26.5,N/A,,Clear,210,2012-12-10 18:51:00
1:43 PM,75.2,71.6,89,29.81,1.8,West,18.4,24.2,0.00,Rain,Heavy Rain,260,2012-12-10 19:43:00
1:51 PM,69.1,68.0,96,29.81,2.0,West,15.0,24.2,0.05,Rain,Light Rain,270,2012-12-10 19:51:00
1:58 PM,69.8,68.0,94,29.82,10.0,West,11.5,-,0.00,,Mostly Cloudy,270,2012-12-10 19:58:00
2:51 PM,70.0,66.9,90,29.81,10.0,WNW,12.7,-,0.01,,Scattered Clouds,300,2012-12-10 20:51:00
3:51 PM,68.0,66.9,96,29.82,10.0,NW,6.9,-,N/A,,Scattered Clouds,320,2012-12-10 21:51:00
4:00 PM,66.2,66.2,100,29.82,10.0,NW,11.5,-,N/A,,Mostly Cloudy,320,2012-12-10 22:00:00
4:02 PM,66.2,66.2,100,29.82,10.0,NNW,12.7,-,N/A,,Mostly Cloudy,330,2012-12-10 22:02:00
4:09 PM,66.2,66.2,100,29.82,10.0,NW,9.2,-,N/A,,Scattered Clouds,320,2012-12-10 22:09:00
4:23 PM,66.2,64.4,94,29.83,10.0,NW,5.8,-,N/A,,Partly Cloudy,320,2012-12-10 22:23:00
4:51 PM,66.0,64.9,96,29.84,10.0,NW,10.4,-,N/A,,Mostly Cloudy,320,2012-12-10 22:51:00
5:31 PM,62.6,62.6,100,29.85,10.0,NNW,15.0,23.0,N/A,,Overcast,330,2012-12-10 23:31:00
5:51 PM,62.1,60.1,93,29.87,10.0,NW,17.3,23.0,N/A,,Overcast,320,2012-12-10 23:51:00
6:51 PM,60.1,59.0,96,29.89,10.0,NNW,17.3,-,N/A,,Overcast,330,2012-12-11 00:51:00
7:34 PM,59.0,57.2,94,29.90,10.0,NNW,13.8,-,N/A,,Overcast,340,2012-12-11 01:34:00
7:51 PM,59.0,57.9,96,29.91,10.0,NNW,15.0,-,N/A,,Overcast,330,2012-12-11 01:51:00
8:51 PM,57.9,55.9,93,29.92,10.0,North,12.7,21.9,N/A,,Overcast,350,2012-12-11 02:51:00
9:51 PM,57.0,54.0,89,29.94,10.0,NNW,18.4,-,N/A,,Overcast,340,2012-12-11 03:51:00
10:51 PM,55.9,53.1,90,29.96,10.0,NNW,11.5,21.9,N/A,,Overcast,340,2012-12-11 04:51:00
11:51 PM,55.9,52.0,87,29.97,10.0,North,5.8,-,N/A,,Overcast,360,2012-12-11 05:51:00